Flag for Canada Weather past 2 weeks in Stephenville, Newfoundland and Labrador, Canada

Now
27 °F

Passing clouds.


Feels Like: 14 °F
Forecast: 4 / 23 °F
Wind: 17 mph from Southwest

Location: Stephenville

Current Time: Mar 5, 2015 at 3:27:29 AM

Latest Report: Mar 5, 2015 at 2:30 AM


Visibility: 15 mi

Pressure: 29.51 "Hg

Humidity: 80%

Dew point: 21 °F

Location of StephenvilleLocation

Historic Weather in Stephenville — Graph

°F

Stephenville temperature yesterday

Maximum temperature yesterday: 27 °F (at 8:30 PM)
Minimum temperature yesterday: 9 °F (at 1:30 AM)
Average temperature yesterday: 16 °F

Past Weeks' High & Low Weather Summary

 TemperatureHumidityPressure
High34 °F (Feb 20, 8:30 AM)100% (Feb 22, 5:30 PM)30.47 "Hg (Feb 22, 5:30 PM)
Low1 °F (Feb 18, 7:30 AM)48% (Feb 28, 11:30 AM)29.10 "Hg (Mar 3, 12:30 AM)
Average19 °F76%29.88 "Hg
* Reported Feb 18 1:30 AM — Mar 5 1:30 AM, Stephenville, Weather by CustomWeather, © 2015

Note: Actual official high and low records may vary slightly from our data, if they occured in-between our weather recording intervals... More about our weather records

Advertising

Stephenville weather history for previous 24 hours

 ConditionsComfort  
Time TempWeatherWind HumidityBarometerVisibility
1:30 AM
Thu, Mar 5
25 °FPassing clouds.13 mph80%29.50 "Hg15 mi
12:30 AM23 °FPassing clouds.14 mph80%29.51 "Hg15 mi
11:30 PM
Wed, Mar 4
23 °FPassing clouds.13 mph80%29.52 "Hg15 mi
10:30 PM21 °FPassing clouds.14 mph86%29.50 "Hg15 mi
9:30 PM23 °FPassing clouds.16 mph80%29.47 "Hg12 mi
8:30 PM27 °FLight snow. Overcast.18 mph80%29.44 "Hg2 mi
6:30 PM23 °FOvercast.7 mph80%29.39 "Hg15 mi
5:30 PM23 °FLight snow. Overcast.7 mph80%29.37 "Hg15 mi
4:30 PM23 °FLight snow. Overcast.15 mph86%29.38 "Hg2 mi
3:30 PM23 °FLight snow. Overcast.15 mph80%29.41 "Hg2 mi
2:30 PM21 °FLight snow. Ice fog.17 mph80%29.47 "Hg1 mi
1:30 PM19 °FLight snow. Ice fog.16 mph86%29.54 "Hg1 mi
12:30 PM18 °FLight snow. Ice fog.18 mph86%29.62 "Hg1 mi
11:30 AM16 °FLight snow. Overcast.12 mph79%29.73 "Hg2 mi
10:30 AM14 °FLight snow. Overcast.12 mph79%29.80 "Hg5 mi
9:30 AM12 °FSnow flurries. Overcast.8 mph85%29.87 "Hg6 mi
8:30 AM14 °FOvercast.15 mph73%29.91 "Hg15 mi
7:30 AM10 °FOvercast.10 mph79%29.95 "Hg15 mi
6:30 AM10 °FPartly sunny.7 mph72%29.97 "Hg15 mi
5:30 AM9 °FPassing clouds.3 mph72%29.99 "Hg15 mi
4:30 AM9 °FPassing clouds.5 mph72%29.99 "Hg15 mi
3:30 AM9 °FPartly cloudy.8 mph66%30.01 "Hg15 mi
Weather by CustomWeather, © 2015

See weather overviewHow to use our weather pages